Time,TemperatureF,DewpointF,PressureIn,WindDirection,WindDirectionDegrees,WindSpeedMPH,WindSpeedGustMPH,Humidity,HourlyPrecipIn,Conditions,Clouds,dailyrainin,SoftwareType,DateUTC
2013-09-30 00:02:00,68.2,67.0,29.96,SE,129,0.0,0.0,96,0.00,,,0.08,weatherlink.com 1.10,2013-09-30 05:02:00,
2013-09-30 00:17:00,68.2,67.0,29.96,SE,128,0.0,0.0,96,0.00,,,0.08,weatherlink.com 1.10,2013-09-30 05:17:00,
2013-09-30 00:32:00,68.2,67.0,29.96,SE,129,0.0,0.0,96,0.01,,,0.09,weatherlink.com 1.10,2013-09-30 05:32:00,
2013-09-30 00:46:00,68.0,67.0,29.96,SE,129,0.0,1.0,96,0.01,,,0.09,weatherlink.com 1.10,2013-09-30 05:46:00,
2013-09-30 01:01:00,67.9,67.0,29.96,South,181,0.0,1.0,96,0.02,,,0.00,weatherlink.com 1.10,2013-09-30 06:01:00,
2013-09-30 01:16:00,67.7,66.0,29.96,SSE,165,0.0,1.0,95,0.02,,,0.00,weatherlink.com 1.10,2013-09-30 06:16:00,
2013-09-30 01:31:00,67.6,66.0,29.95,SE,134,0.0,1.0,95,0.01,,,0.00,weatherlink.com 1.10,2013-09-30 06:31:00,
2013-09-30 01:46:00,67.5,66.0,29.96,SE,134,0.0,1.0,95,0.01,,,0.00,weatherlink.com 1.10,2013-09-30 06:46:00,
2013-09-30 02:01:00,67.4,66.0,29.96,SE,134,0.0,0.0,95,0.00,,,0.00,weatherlink.com 1.10,2013-09-30 07:01:00,
2013-09-30 02:16:00,67.3,66.0,29.95,SE,134,0.0,0.0,95,0.00,,,0.00,weatherlink.com 1.10,2013-09-30 07:16:00,
2013-09-30 02:31:00,67.1,66.0,29.95,SE,134,0.0,0.0,95,0.00,,,0.00,weatherlink.com 1.10,2013-09-30 07:31:00,
2013-09-30 02:46:00,66.9,66.0,29.95,SE,134,0.0,0.0,95,0.00,,,0.00,weatherlink.com 1.10,2013-09-30 07:46:00,
2013-09-30 03:01:00,66.7,66.0,29.94,SE,134,0.0,0.0,96,0.00,,,0.00,weatherlink.com 1.10,2013-09-30 08:01:00,
2013-09-30 03:16:00,66.5,65.0,29.94,SE,134,0.0,0.0,96,0.00,,,0.00,weatherlink.com 1.10,2013-09-30 08:16:00,
2013-09-30 03:31:00,66.4,65.0,29.94,SE,134,0.0,0.0,96,0.00,,,0.00,weatherlink.com 1.10,2013-09-30 08:31:00,
2013-09-30 03:46:00,66.6,65.0,29.94,SE,134,0.0,0.0,95,0.00,,,0.00,weatherlink.com 1.10,2013-09-30 08:46:00,
2013-09-30 04:01:00,66.6,65.0,29.94,SE,134,0.0,0.0,95,0.00,,,0.00,weatherlink.com 1.10,2013-09-30 09:01:00,
2013-09-30 04:16:00,66.5,65.0,29.94,SE,134,0.0,0.0,95,0.00,,,0.00,weatherlink.com 1.10,2013-09-30 09:16:00,
2013-09-30 04:31:00,66.4,65.0,29.94,SE,134,0.0,0.0,95,0.00,,,0.00,weatherlink.com 1.10,2013-09-30 09:31:00,
2013-09-30 04:46:00,66.6,65.0,29.94,SE,134,0.0,1.0,95,0.00,,,0.00,weatherlink.com 1.10,2013-09-30 09:46:00,
2013-09-30 05:01:00,66.6,65.0,29.94,SE,134,0.0,0.0,94,0.00,,,0.00,weatherlink.com 1.10,2013-09-30 10:01:00,
2013-09-30 05:16:00,66.6,65.0,29.95,SE,134,0.0,0.0,94,0.00,,,0.00,weatherlink.com 1.10,2013-09-30 10:16:00,
2013-09-30 05:31:00,66.8,65.0,29.95,SE,134,0.0,0.0,94,0.00,,,0.00,weatherlink.com 1.10,2013-09-30 10:31:00,
2013-09-30 05:46:00,66.7,65.0,29.95,SE,134,0.0,1.0,95,0.00,,,0.00,weatherlink.com 1.10,2013-09-30 10:46:00,
2013-09-30 06:01:00,66.7,65.0,29.95,SE,134,0.0,0.0,95,0.00,,,0.00,weatherlink.com 1.10,2013-09-30 11:01:00,
2013-09-30 06:16:00,66.5,65.0,29.95,SE,134,0.0,0.0,95,0.00,,,0.00,weatherlink.com 1.10,2013-09-30 11:16:00,
2013-09-30 06:31:00,66.4,65.0,29.95,SE,134,0.0,0.0,95,0.00,,,0.00,weatherlink.com 1.10,2013-09-30 11:31:00,
2013-09-30 06:47:00,66.5,65.0,29.95,SE,134,0.0,0.0,95,0.00,,,0.00,weatherlink.com 1.10,2013-09-30 11:47:00,
2013-09-30 07:02:00,66.7,66.0,29.96,SE,134,0.0,0.0,96,0.00,,,0.00,weatherlink.com 1.10,2013-09-30 12:02:00,
2013-09-30 07:17:00,66.7,66.0,29.96,SE,134,0.0,0.0,96,0.00,,,0.00,weatherlink.com 1.10,2013-09-30 12:17:00,
2013-09-30 07:32:00,66.9,66.0,29.95,SE,134,0.0,0.0,95,0.00,,,0.00,weatherlink.com 1.10,2013-09-30 12:32:00,
2013-09-30 07:47:00,67.4,66.0,29.96,SE,134,0.0,1.0,94,0.00,,,0.00,weatherlink.com 1.10,2013-09-30 12:47:00,
2013-09-30 08:02:00,68.2,66.0,29.96,SSE,159,0.0,1.0,93,0.00,,,0.00,weatherlink.com 1.10,2013-09-30 13:02:00,
2013-09-30 08:17:00,68.8,66.0,29.96,SE,139,1.0,2.0,92,0.00,,,0.00,weatherlink.com 1.10,2013-09-30 13:17:00,
2013-09-30 08:32:00,69.2,67.0,29.96,SE,142,1.0,1.0,92,0.00,,,0.00,weatherlink.com 1.10,2013-09-30 13:32:00,
2013-09-30 08:47:00,70.1,67.0,29.96,SE,145,0.0,1.0,91,0.00,,,0.00,weatherlink.com 1.10,2013-09-30 13:47:00,
2013-09-30 09:02:00,70.8,68.0,29.96,ESE,115,1.0,1.0,91,0.00,,,0.00,weatherlink.com 1.10,2013-09-30 14:02:00,
2013-09-30 09:17:00,71.7,69.0,29.96,ESE,114,0.0,1.0,90,0.00,,,0.00,weatherlink.com 1.10,2013-09-30 14:17:00,
2013-09-30 09:32:00,72.8,70.0,29.97,ESE,123,0.0,1.0,89,0.00,,,0.00,weatherlink.com 1.10,2013-09-30 14:32:00,
2013-09-30 09:47:00,75.6,71.0,29.97,South,179,1.0,2.0,86,0.00,,,0.00,weatherlink.com 1.10,2013-09-30 14:47:00,
2013-09-30 10:02:00,77.0,72.0,29.98,SE,134,1.0,2.0,84,0.00,,,0.00,weatherlink.com 1.10,2013-09-30 15:02:00,
2013-09-30 10:17:00,77.8,72.0,29.97,SE,134,0.0,2.0,82,0.00,,,0.00,weatherlink.com 1.10,2013-09-30 15:17:00,
2013-09-30 10:32:00,78.0,73.0,29.97,SE,134,0.0,2.0,84,0.00,,,0.00,weatherlink.com 1.10,2013-09-30 15:32:00,
2013-09-30 10:47:00,78.5,73.0,29.97,SE,131,1.0,3.0,84,0.00,,,0.00,weatherlink.com 1.10,2013-09-30 15:47:00,
2013-09-30 11:02:00,79.4,73.0,29.97,SE,142,1.0,3.0,81,0.00,,,0.00,weatherlink.com 1.10,2013-09-30 16:02:00,
2013-09-30 11:17:00,80.7,74.0,29.97,ESE,111,0.0,3.0,80,0.00,,,0.00,weatherlink.com 1.10,2013-09-30 16:17:00,
2013-09-30 11:32:00,80.3,74.0,29.97,SE,131,2.0,2.0,80,0.00,,,0.00,weatherlink.com 1.10,2013-09-30 16:32:00,
2013-09-30 11:47:00,80.3,74.0,29.97,SE,135,3.0,3.0,81,0.00,,,0.00,weatherlink.com 1.10,2013-09-30 16:47:00,
2013-09-30 12:02:00,80.4,73.0,29.96,SSE,155,2.0,3.0,79,0.00,,,0.00,weatherlink.com 1.10,2013-09-30 17:02:00,
2013-09-30 12:18:00,80.5,75.0,29.96,SSW,193,0.0,3.0,82,0.00,,,0.00,weatherlink.com 1.10,2013-09-30 17:18:00,
2013-09-30 12:32:00,80.6,74.0,29.95,SSE,153,1.0,4.0,80,0.00,,,0.00,weatherlink.com 1.10,2013-09-30 17:32:00,
2013-09-30 12:48:00,81.2,73.0,29.95,SSE,156,2.0,5.0,77,0.00,,,0.00,weatherlink.com 1.10,2013-09-30 17:48:00,
2013-09-30 13:03:00,80.8,73.0,29.94,SSE,160,2.0,4.0,78,0.00,,,0.00,weatherlink.com 1.10,2013-09-30 18:03:00,
2013-09-30 13:18:00,81.1,73.0,29.93,ESE,107,0.0,3.0,77,0.00,,,0.00,weatherlink.com 1.10,2013-09-30 18:18:00,
2013-09-30 13:33:00,80.6,72.0,29.93,SSE,155,2.0,3.0,76,0.00,,,0.00,weatherlink.com 1.10,2013-09-30 18:33:00,
2013-09-30 13:48:00,80.0,73.0,29.93,SSE,153,0.0,3.0,78,0.00,,,0.00,weatherlink.com 1.10,2013-09-30 18:48:00,
2013-09-30 14:03:00,78.5,73.0,29.92,NW,304,1.0,4.0,84,0.00,,,0.00,weatherlink.com 1.10,2013-09-30 19:03:00,
2013-09-30 14:18:00,76.3,73.0,29.93,West,264,0.0,2.0,90,0.01,,,0.01,weatherlink.com 1.10,2013-09-30 19:18:00,
2013-09-30 14:33:00,76.0,73.0,29.92,North,349,0.0,1.0,91,0.03,,,0.03,weatherlink.com 1.10,2013-09-30 19:33:00,
2013-09-30 14:48:00,76.6,74.0,29.92,North,5,0.0,2.0,92,0.03,,,0.03,weatherlink.com 1.10,2013-09-30 19:48:00,
2013-09-30 15:03:00,77.4,75.0,29.92,NNE,12,1.0,1.0,91,0.03,,,0.03,weatherlink.com 1.10,2013-09-30 20:03:00,
2013-09-30 15:18:00,77.3,75.0,29.91,NNE,30,0.0,3.0,92,0.02,,,0.03,weatherlink.com 1.10,2013-09-30 20:18:00,
2013-09-30 15:33:00,77.1,74.0,29.92,ESE,102,0.0,1.0,90,0.00,,,0.03,weatherlink.com 1.10,2013-09-30 20:33:00,
2013-09-30 15:48:00,77.5,72.0,29.91,SSE,166,0.0,2.0,84,0.00,,,0.03,weatherlink.com 1.10,2013-09-30 20:48:00,
2013-09-30 16:03:00,78.0,73.0,29.91,SSE,166,0.0,1.0,83,0.00,,,0.03,weatherlink.com 1.10,2013-09-30 21:03:00,
2013-09-30 16:18:00,78.1,73.0,29.91,SE,136,1.0,2.0,83,0.00,,,0.03,weatherlink.com 1.10,2013-09-30 21:18:00,
2013-09-30 16:33:00,77.9,72.0,29.92,SSE,148,0.0,1.0,83,0.00,,,0.03,weatherlink.com 1.10,2013-09-30 21:33:00,
2013-09-30 16:48:00,77.5,72.0,29.91,SSE,152,1.0,2.0,83,0.00,,,0.03,weatherlink.com 1.10,2013-09-30 21:48:00,
2013-09-30 17:03:00,77.2,72.0,29.92,SSE,167,1.0,2.0,84,0.00,,,0.03,weatherlink.com 1.10,2013-09-30 22:03:00,
2013-09-30 17:18:00,76.6,72.0,29.93,SE,145,0.0,1.0,86,0.00,,,0.03,weatherlink.com 1.10,2013-09-30 22:18:00,
2013-09-30 17:33:00,75.8,72.0,29.93,SE,141,1.0,2.0,87,0.00,,,0.03,weatherlink.com 1.10,2013-09-30 22:33:00,
2013-09-30 17:48:00,75.4,72.0,29.93,SE,139,0.0,2.0,89,0.01,,,0.04,weatherlink.com 1.10,2013-09-30 22:48:00,
2013-09-30 18:03:00,75.1,72.0,29.92,SE,128,1.0,1.0,89,0.01,,,0.04,weatherlink.com 1.10,2013-09-30 23:03:00,
2013-09-30 18:17:00,75.1,72.0,29.92,SE,132,2.0,4.0,89,0.01,,,0.04,weatherlink.com 1.10,2013-09-30 23:17:00,
2013-09-30 18:32:00,74.8,72.0,29.93,ESE,111,0.0,1.0,90,0.01,,,0.04,weatherlink.com 1.10,2013-09-30 23:32:00,
2013-09-30 18:47:00,74.3,71.0,29.93,SE,138,1.0,2.0,90,0.00,,,0.04,weatherlink.com 1.10,2013-09-30 23:47:00,
2013-09-30 19:02:00,73.9,71.0,29.94,SE,139,0.0,1.0,90,0.00,,,0.04,weatherlink.com 1.10,2013-10-01 00:02:00,
2013-09-30 19:17:00,73.7,71.0,29.95,SE,139,0.0,1.0,91,0.00,,,0.04,weatherlink.com 1.10,2013-10-01 00:17:00,
2013-09-30 19:32:00,73.1,71.0,29.95,SE,140,0.0,1.0,92,0.00,,,0.04,weatherlink.com 1.10,2013-10-01 00:32:00,
2013-09-30 19:47:00,73.1,70.0,29.95,SE,133,1.0,2.0,91,0.00,,,0.04,weatherlink.com 1.10,2013-10-01 00:47:00,
2013-09-30 20:02:00,73.1,70.0,29.95,SE,143,1.0,1.0,91,0.00,,,0.04,weatherlink.com 1.10,2013-10-01 01:02:00,
2013-09-30 20:18:00,73.0,70.0,29.95,SSE,165,0.0,1.0,91,0.00,,,0.04,weatherlink.com 1.10,2013-10-01 01:18:00,
2013-09-30 20:33:00,73.0,70.0,29.95,SE,135,1.0,2.0,91,0.00,,,0.04,weatherlink.com 1.10,2013-10-01 01:33:00,
2013-09-30 20:48:00,72.8,70.0,29.95,SSE,149,1.0,2.0,91,0.00,,,0.04,weatherlink.com 1.10,2013-10-01 01:48:00,
2013-09-30 21:18:00,72.3,70.0,29.96,SE,138,0.0,1.0,93,0.00,,,0.04,weatherlink.com 1.10,2013-10-01 02:18:00,
2013-09-30 21:33:00,71.8,70.0,29.96,ESE,120,0.0,1.0,93,0.00,,,0.04,weatherlink.com 1.10,2013-10-01 02:33:00,
2013-09-30 21:48:00,71.7,70.0,29.96,SE,135,0.0,2.0,94,0.00,,,0.04,weatherlink.com 1.10,2013-10-01 02:48:00,
2013-09-30 22:03:00,71.6,70.0,29.97,SE,134,0.0,1.0,94,0.00,,,0.04,weatherlink.com 1.10,2013-10-01 03:03:00,
2013-09-30 22:18:00,71.4,70.0,29.97,SE,134,0.0,0.0,94,0.00,,,0.04,weatherlink.com 1.10,2013-10-01 03:18:00,
2013-09-30 22:33:00,71.2,70.0,29.97,SE,134,0.0,1.0,95,0.00,,,0.04,weatherlink.com 1.10,2013-10-01 03:33:00,
2013-09-30 22:48:00,71.1,70.0,29.97,SE,134,0.0,1.0,95,0.00,,,0.04,weatherlink.com 1.10,2013-10-01 03:48:00,
2013-09-30 23:03:00,71.1,70.0,29.97,SE,140,0.0,2.0,96,0.00,,,0.04,weatherlink.com 1.10,2013-10-01 04:03:00,
2013-09-30 23:18:00,71.1,70.0,29.97,SE,135,0.0,1.0,96,0.00,,,0.04,weatherlink.com 1.10,2013-10-01 04:18:00,
2013-09-30 23:33:00,71.1,70.0,29.97,SE,135,0.0,1.0,96,0.00,,,0.04,weatherlink.com 1.10,2013-10-01 04:33:00,
2013-09-30 23:48:00,71.0,70.0,29.97,SE,138,0.0,1.0,96,0.00,,,0.04,weatherlink.com 1.10,2013-10-01 04:48:00,